Regional Weather Roundup
Issued by NWS Grand Forks, ND

Home | Current Version | Previous Version | Text Only | Print | Product List | Glossary On
Versions: 1 2 3 4 5 6 7 8 9 10 11 12 13 14 15 16 17 18 19 20 21 22 23 24 25 26 27 28 29 30 31 32 33 34 35 36 37 38 39 40 41 42 43 44 45 46 47 48 49 50
000
ASUS43 KFGF 200331
RWRFGF
PRAIRIE TO PINES  WEATHER ROUNDUP
NATIONAL WEATHER SERVICE EASTERN NORTH DAKOTA/GRAND FORKS ND
900 PM CST THU JAN 19 2017

 **SATELLITE DATA USED TO AUGMENT SKY COVER AT AUTOMATED STATIONS**
 *****  WEATHER ACROSS EASTERN NORTH DAKOTA  *****

CITY           SKY/WX    TMP DP  RH WIND       PRES   REMARKS
GRAND FORKS    CLOUDY    35  32  88 S16       29.56R FOG
GRAND FRKS AFB CLOUDY    32  32 100 S16       29.54F WCI  21
DEVILS LAKE    CLOUDY    23  21  93 S13       29.50R FOG     WCI  11
FARGO          FOG       36  35  96 S14       29.59S VSB 1
WAHPETON ARPT  CLOUDY    34  32  93 SE12      29.61F VSB 3/4
$$

 ***** WEATHER ACROSS CENTRAL AND WESTERN NORTH DAKOTA  *****

CITY           SKY/WX    TMP DP  RH WIND       PRES   REMARKS
BISMARCK       FAIR      13  10  88 SE8       29.50R WCI   2
MINOT          FAIR      27  22  81 S8        29.42F WCI  19
JAMESTOWN      CLOUDY    33  33 100 S13       29.50F FOG     WCI  24
MINOT AFB      FAIR      22  19  87 SW3       29.41F
GARRISON         N/A     16  13  88 E3        29.43F
WILLISTON      FAIR      14  12  92 CALM      29.44F
DICKINSON      FAIR      21  16  81 CALM      29.41F
HETTINGER      FAIR      20  16  84 CALM      29.44F
$$

 *****  OTHER AIRPORT OBSERVATIONS IN OUR AREA  *****

CITY           SKY/WX    TMP DP  RH WIND       PRES   REMARKS
WALHALLA       NOT AVBL
GRAFTON AIRPOR CLOUDY    34  34 100 S16       29.55F FOG     WCI  23
VALLEY CITY AR CLOUDY    32  32 100 S12       29.54F FOG     WCI  23
CANDO          NOT AVBL
CAVALIER APRT    N/A     28  28 100 S14       29.52S FOG     WCI  17
GWINNER        CLOUDY    36  36 100 SE9       29.55F
ROLLA            N/A    N/A N/A N/A MISG        N/A
 ***** THE ABOVE OBSERVATIONS ARE NON NWS ARE NOT QUALITY
       CONTROLLED AND MAY MIS-REPORT RAIN FOR SNOW...
$$

  *****  WEATHER ACROSS NORTHERN MINNESOTA  *****

CITY           SKY/WX    TMP DP  RH WIND       PRES   REMARKS
FLAG ISLAND    FOG       25  23  93 S8        29.56F VSB 1/4 WCI  16
WARROAD        FOG       28  25  86 CALM      29.57S VSB 1
ROSEAU         HAZE      32  27  80 S3        29.56S VSB 1/2
HALLOCK        FOG       34  32  93 S13       29.54S VSB 1/2 WCI  25
THF RVR FALLS  MOCLDY    36  35  96 S16       29.57S
BAUDETTE       FAIR      36  33  89 S9        29.58S
WASKISH        FAIR      39  37  93 S8        29.60R
CROOKSTON      FOG       34  34 100 S22       29.58S VSB 1/2 WCI  22
STEPHEN NDAWN    N/A     30  30 100 S12         N/A  WCI  21
GREENBUSH NDAW   N/A     36  34  93 S16         N/A
$$
  *****  WEATHER ACROSS CENTRAL AND WEST MINNESOTA  *****

CITY           SKY/WX    TMP DP  RH WIND       PRES   REMARKS
FOSSTON        FAIR      34  34 100 S13       29.59S WCI  25
BEMIDJI        CLOUDY    37  37  98 S10       29.61S FOG
PARK RAPIDS    FOG       34  32  92 S14       29.63F VSB 1/2 WCI  25
ELBOW LAKE     SNOW      34  34 100 E10       29.63S VSB 1/2
WADENA         FOG       32  32 100 SE8       29.64F VSB 1/4 WCI  25
DETROIT LAKES  FOG       36  34  93 S16       29.62F VSB 3/4
MOORHEAD       CLOUDY    34  34 100 S17       29.60F FOG     WCI  23
FERGUS FALLS   FOG       36  36 100 S13       29.66F VSB 3/4
MORRIS MN      MIX PCPN  34  34 100 SE14      29.62S VSB 1/4 WCI  24
STAPLES        CLOUDY    34  34 100 SE6       29.66F FOG
$$
  *****  WEATHER ELSEWHERE ACROSS MINNESOTA  *****

CITY           SKY/WX    TMP DP  RH WIND       PRES   REMARKS
DULUTH         CLOUDY    36  33  89 S7        29.71F
INTRNTL FALLS  FAIR      37  34  89 VRB7      29.62F FOG
ELY            FAIR      37  34  87 S7        29.69S
CLOQUET        CLOUDY    34  30  86 SE3       29.70F FOG
WHEATON        CLOUDY    41  41 100 SE9       29.63F FOG
BRAINERD       FAIR      36  33  89 SE7       29.68F FOG
HIBBING        FOG       24  24 100 CALM      29.69S VSB 1/4
ALEXANDRIA     FOG       34  34 100 SE9       29.65F VSB 1/2
SAINT CLOUD    CLOUDY    35  33  92 CALM      29.69F
MINNEAPOLIS    CLOUDY    36  31  82 SE8       29.71F
$$

  *****  WEATHER ACROSS SOUTH DAKOTA  *****

CITY           SKY/WX    TMP DP  RH WIND       PRES   REMARKS
SIOUX FALLS    DRZL/FOG  38  38 100 SE12      29.60F VSB 1
BROOKINGS      FOG       36  36 100 SE15      29.58S VSB 3/4
WATERTOWN      FOG       34  34 100 S16       29.55F VSB 3/4 WCI  24
HURON          CLOUDY    37  37 100 SE12      29.53F
SISSETON         N/A     35  35 100 S9        29.59S
ABERDEEN       CLOUDY    34  32  92 S9        29.53F FOG
MITCHELL       CLOUDY    40  39  97 SE15      29.55F
PIERRE         FOG       21  20  96 NW5       29.46S VSB 1/4 WCI  15
MOBRIDGE       FOG       22  18  85 CALM      29.46F VSB 1/4
RAPID CITY     FAIR      29  20  69 NW6       29.45F WCI  23
$$

  *****  SOME WEATHER IN NEARBY STATES *****

CITY           SKY/WX    TMP DP  RH WIND       PRES   REMARKS
GLASGOW MT     FAIR      26  21  81 S6        29.45S WCI  19
GREAT FALLS MT FAIR      37  28  70 S10       29.47S
CHEYENNE WY    FAIR      34  19  54 W14       29.53F WCI  25
SCOTTSBLUFF NE FAIR      32  24  72 NW7       29.52R
OMAHA NE       LGT RAIN  39  36  89 CALM      29.66F VSB 1/2
DES MOINES IA  DRZL/FOG  38  37  97 E3        29.67F VSB 1/4
DAVENPORT IA   CLOUDY    37  36  96 E9        29.73F FOG
CHICAGO IL     RAIN      38  37  97 E9        29.78F FOG
EAU CLAIRE WI  CLOUDY    36  32  85 NE6       29.74F
LA CROSSE WI   LGT RAIN  39  35  86 E5        29.76S FOG
$$

  *****  SOME NATIONAL WEATHER *****

CITY           SKY/WX    TMP DP  RH WIND       PRES   REMARKS
LA GUARDIA NY  MOCLDY    44  33  65 N8        30.01F
RALEIGH NC     FAIR      50  40  68 SE5       29.99F
ATLANTA GA     CLOUDY    65  51  60 SE8       29.87F
NEW ORLEANS LA FAIR      63  62  97 S6        29.81R
OKLAHOMA CITY  FAIR      47  45  93 S7        29.55S
ALBUQUERQUE NM CLOUDY    42  35  76 NW6       29.82R
SALT LAKE CITY CLOUDY    30  28  92 W5        29.72F FOG
LOS ANGELES CA FAIR      57  51  80 W13       29.91F
BOISE ID       MOCLDY    35  31  85 SE9       29.68S
SEATTLE WA     CLOUDY    47  39  74 S9        29.49F
$$

*** WEATHER ACROSS MANITOBA...SASKATCHEWAN AND ONTARIO ***
                ***ONTARIO***

CITY           SKY/WX    TMP DP  RH WIND       PRES   REMARKS
GERALDTON      CLOUDY    34  32  93 S12       29.70F FOG
THUNDER BAY    FOG       32  32 100 NE5       29.74F VSB 5/8
SIOUX LOOKOUT  MOCLDY    30  28  93 S6        29.60F FOG     WCI  24
TORONTO        CLOUDY    34  30  86 SE5       29.98F
BIG TROUT LK   CLEAR     27  27 100 W6        29.46S WCI  20
PICKLE LAKE    NOT AVBL
DRYDEN         MOCLDY    30  30 100 S8        29.58F FOG     WCI  23
KENORA         CLEAR     30  30 100 S12G18    29.56S WCI  21
$$
                *** MANITOBA***

CITY           SKY/WX    TMP DP  RH WIND       PRES   REMARKS
BRANDON        PTCLDY    23  21  93 W6        29.44S WCI  16
DAUPHIN        CLEAR     32  28  86 W7        29.40S
ISLAND LAKE    PTCLDY    27  25  93 S2        29.46S
PILOT MOUND      N/A     18  16  93 S9          N/A  WCI   6
THE PAS        CLOUDY    30  27  86 E5        29.40F
THOMPSON       FOG       28  28 100 CALM      29.45S VSB 3/4
WINNIPEG       LGT SNOW  25  25 100 S18       29.50S VSB 1   WCI  11
LYNN LAKE      CLOUDY    28  28 100 SE5       29.43R WCI  23
CHURCHILL      FLURRIES  19  19 100 E13       29.51F WCI   7
GILLAM         LGT SNOW  28  27  93 CALM      29.47S VSB 1
$$
                ***SASKATCHEWAN***

CITY           SKY/WX    TMP DP  RH WIND       PRES   REMARKS
ESTEVAN        CLEAR     23  19  86 SW7       29.41F WCI  15
KINDERSLEY     MOCLDY    34  30  86 S10       29.28R
LLOYDMINSTER   MOCLDY    25  25 100 S5        29.20S WCI  19
PRINCE ALBERT  MOCLDY    30  28  93 E3        29.30S
REGINA         MOCLDY    32  28  86 SE6       29.39R
YORKTON        CLEAR     34  28  80 S10       29.38F
N. BATTLEFORD  CLEAR     32  32 100 SE9       29.25F WCI  24
LA RONGE       MOCLDY    32  28  86 NE6       29.31F
SASKATOON      MOCLDY    36  32  87 S8        29.30F
SWIFT CURRENT  CLOUDY    37  32  81 SW14      29.36S
$$
NOTE: THESE ARE AUTOMATED STATIONS WITH LIMITED QUALITY CONTROL
      "FAIR" INDICATES FEW OR NO CLOUDS BELOW 12,000 FEET WITH NO
      SIGNIFICANT WEATHER AND/OR OBSTRUCTIONS TO VISIBILITY.
      SKY/WX - SKY CONDITION AND SIGNIFICANT WEATHER.
      TMP - AIR TEMPERATURE.    DP   - DEWPOINT TEMPERATURE.
      RH  - RELATIVE HUMIDITY.  PRES - PRESSURE.
      HX  - HEAT INDEX.         WCI  - WIND CHILL INDEX.
$



USA.gov is the U.S. government's official web portal to all federal, state and local government web resources and services.